Regional Weather Roundup
Issued by NWS

Home | Current Version | Previous Version | Text Only | Print | Product List | Glossary On
Versions: 1 2 3 4 5 6 7 8 9 10 11 12 13 14 15 16 17 18 19 20 21 22 23 24 25 26 27 28 29 30 31 32 33 34 35 36 37 38 39 40 41 42 43 44 45 46 47 48 49 50
000
ASUS43 KLOT 201110
RWRIL

ILLINOIS REGIONAL WEATHER ROUNDUP
NATIONAL WEATHER SERVICE CHICAGO/ROMEOVILLE IL
500 AM CST SAT DEC 20 2014

NOTE: "FAIR" INDICATES FEW OR NO CLOUDS BELOW 12,000 FEET WITH NO
SIGNIFICANT WEATHER AND/OR OBSTRUCTIONS TO VISIBILITY.

* THESE STATIONS ARE NOT UNDER NWS QUALITY CONTROL. THEY ALSO MAY NOT
  REPORT WEATHER SUCH AS PRECIPITATION OR FOG.

ILZ001-002-007-009-015-016-024-201200-
NORTHWEST ILLINOIS

CITY           SKY/WX    TMP DP  RH WIND       PRES   REMARKS
MOLINE         NOT AVBL
STERLING*      CLOUDY    28  25  86 E5        30.26S WCI  23
SAVANNA*       CLOUDY    29  26  88 CALM      30.26S
$$

ILZ003-004-008-010-011-017-018-201200-
NORTH CENTRAL ILLINOIS

CITY           SKY/WX    TMP DP  RH WIND       PRES   REMARKS
ROCKFORD       CLOUDY    26  22  84 E3        30.29S
FREEPORT*      CLOUDY    27  24  91 E3        30.28R FOG
ROCHELLE*      CLOUDY    26  24  94 CALM      30.27R FOG
DE KALB*       CLOUDY    25  23  92 CALM      30.26S FOG
PERU*          CLOUDY    29  26  89 CALM      30.27S
$$

ILZ005-006-012>014-019>023-201200-
NORTHEAST ILLINOIS

CITY           SKY/WX    TMP DP  RH WIND       PRES   REMARKS
CHICAGO-OHARE  CLOUDY    29  23  78 CALM      30.26F
CHICAGO-MIDWAY CLOUDY    32  25  75 SW3       30.28S
AURORA         CLOUDY    28  23  81 CALM      30.27F HAZE
LANSING*       CLOUDY    29  26  88 CALM      30.28S
JOLIET*        CLOUDY    28  24  84 CALM      30.29R
WAUKEGAN       CLOUDY    27  21  78 W3        30.27S
DUPAGE AIRPORT CLOUDY    28  24  85 CALM      30.26S
KANKAKEE*      CLOUDY    29  27  94 CALM      30.29R FOG
WHEELING       CLOUDY    28  23  81 NW3       30.29S
MORRIS*        CLOUDY    27  25  94 CALM      30.27S
ROMEOVILLE*    CLOUDY    29  27  94 W3        30.28R FOG
NORTHERLY ISL    N/A     32  23  70 S3          N/A
$$

LMZ740>746-201200-
SOUTHERN LAKE MICHIGAN

STATION/POSITION SKY/WX   TEMP    WIND        PRES    VSBY  WAVE
                          AIR SEA DIR/SP/G                  HT/PER
                          (F)     (DEG/KT/KT) (MB)    (MI)  (FT/S)
WAUKEGAN HARBOR            28      CALM  /  2   N/A
HARRISON CRIB              31     250/  6/  7   N/A
BURNHAM HARBOR             32     200/  2/  6   N/A
CALUMET HARBOR             31     190/  2/  3 1024.0R
$$

ILZ025>027-034>036-040-047-049-050-058-095>099-201200-
WEST-CENTRAL ILLINOIS

CITY           SKY/WX    TMP DP  RH WIND       PRES   REMARKS
QUINCY         CLOUDY    32  27  81 SE5       30.23S WCI  27
GALESBURG*     CLOUDY    29  25  85 CALM      30.25R
MACOMB*        CLOUDY    30  28  90 CALM      30.27R FOG
JACKSONVILLE*  CLOUDY    33  29  86 E3        30.25S
PITTSFIELD*    CLOUDY    32  29  87 CALM      30.25R
$$

ILZ028>032-037-038-041>044-048-051>054-059>061-201200-
CENTRAL ILLINOIS

CITY           SKY/WX    TMP DP  RH WIND       PRES   REMARKS
PONTIAC        CLOUDY    27  26  95 CALM      30.28F FOG
BLOOMINGTON    PTCLDY    24  23  96 SE3       30.27S FOG
DECATUR        CLOUDY    30  27  88 E3        30.27S
PEORIA         CLOUDY    29  24  82 CALM      30.26F
LACON*         CLOUDY    28  23  83 CALM      30.26S
LINCOLN*       CLOUDY    31  29  92 CALM      30.28R FOG
SPRINGFIELD    CLOUDY    32  27  81 CALM      30.26S
TAYLORVILLE    CLOUDY    30  28  93 CALM      30.27R
$$

ILZ033-039-045-046-055>057-062-063-201200-
EAST-CENTRAL ILLINOIS

CITY           SKY/WX    TMP DP  RH WIND       PRES   REMARKS
CHAMPAIGN      CLOUDY    26  24  92 CALM      30.28R FOG
DANVILLE*      CLOUDY    28  27  94 CALM      30.25R FOG
RANTOUL*       CLOUDY    27  25  94 CALM      30.28R FOG
MATTOON        CLOUDY    29  25  85 CALM      30.26R
PARIS*         CLOUDY    31  28  90 CALM      30.29R
$$

ILZ079-100>102-201200-
SOUTHWEST ILLINOIS

CITY           SKY/WX    TMP DP  RH WIND       PRES   REMARKS
ALTON          CLOUDY    33  28  83 E5        30.26S WCI  28
BELLEVILLE     CLOUDY    34  31  89 E3        30.26S
CAHOKIA*       CLOUDY    35  29  78 SE3       30.26F
SPARTA*        CLOUDY    33  29  86 E3        30.27F
$$

ILZ064>066-069>071-074>076-080>082-084>086-088>090-092>094-201200-
SOUTH-CENTRAL ILLINOIS

CITY           SKY/WX    TMP DP  RH WIND       PRES   REMARKS
CARBONDALE     CLOUDY    33  28  81 CALM      30.28R
CAIRO*         CLOUDY    37  31  79 NE3       30.27S
EFFINGHAM*     CLOUDY    31  26  80 CALM      30.29R
MARION         CLOUDY    34  30  86 CALM      30.29R
MT. VERNON     CLOUDY    32  25  74 CALM      30.29R
CENTRALIA*     CLOUDY    33  27  81 CALM      30.27S
SALEM*         CLOUDY    34  28  79 CALM      30.28R
METROPOLIS*    CLOUDY    34  30  84 CALM      30.27R
$$

ILZ067-068-072-073-078-083-087-091-201200-
SOUTHEAST ILLINOIS

CITY           SKY/WX    TMP DP  RH WIND       PRES   REMARKS
LAWRENCEVILLE  CLOUDY    30  27  88 NE5       30.29S WCI  25
FLORA*         PTCLDY    31  28  90 CALM      30.30R
FAIRFIELD*     CLOUDY    32  29  88 CALM      30.28R
HARRISBURG*    CLOUDY    32  30  92 CALM      30.29R
ROBINSON*      CLOUDY    30  29  96 CALM      30.30R
CARMI*         CLOUDY    33  30  88 CALM      30.29R
$$

ABBREVIATIONS USED IN REMARKS
   TC - TEMPERATURE IN CELSIUS
  WCI - WIND CHILL INDEX
   HX - HEAT INDEX
  VSB - VISIBILITY
$$



USA.gov is the U.S. government's official web portal to all federal, state and local government web resources and services.